Weather History for Cheboygan, MI

Change the Weather History Date:

Saturday, November 9, 2013

  Actual Average (KPLN) Record (KPLN)
Temperature  
Mean Temperature 39 °F -  
Max Temperature 45 °F 43 °F 68 °F (1999)
Min Temperature 33 °F 31 °F 16 °F (2014)
Degree Days  
Heating Degree Days 26    
Moisture  
Dew Point 35 °F    
Average Humidity 84    
Maximum Humidity 94    
Minimum Humidity 68    
Precipitation  
Precipitation 0.00 in - - ()
Sea Level Pressure  
Sea Level Pressure 29.75 in    
Wind  
Wind Speed 8 mph (SSW)    
Max Wind Speed 17 mph    
Max Gust Speed 30 mph    
Visibility 7 miles    
Events Rain , Snow    
Averages and records for this station are not official NWS values.
T = Trace of Precipitation, MM = Missing Value Source: NWS Daily Summary

Daily Weather History Graph

Daily Weather History Graph

Search for Another Location

Airport:

Trip Planner

Search our weather history database for the weather conditions in past years. The results will help you decide how hot, cold, wet, or windy it might be!

Date:

Astronomy

Nov. 09, 2013 Rise Set
Actual Time 7:29 AM EST 5:13 PM EST
Civil Twilight 6:57 AM EST 5:45 PM EST
Nautical Twilight 6:22 AM EST 6:21 PM EST
Astronomical Twilight 5:47 AM EST 6:55 PM EST
Moon 1:02 PM EST (11/9) 11:47 PM EST (11/9)
Length of Visible Light 10h 47m
Length of Day
9h 44m
Waxing Crescent, 44% of the Moon is Illuminated
Nov 9
Waxing Crescent
Nov 10
First Quarter
Nov 17
Full
Nov 25
Last Quarter
Dec 2
New

Hourly Weather History & Observations

Time (EST) Temp. Windchill Dew Point Humidity Pressure Visibility Wind Dir Wind Speed Gust Speed Precip Events Conditions
12:16 AM 36.0 °F 31.1 °F 28.6 °F 75% 30.07 in 10.0 mi SSE 5.8 mph - N/A   Clear
12:36 AM 36.5 °F 31.8 °F 28.8 °F 74% 30.06 in 10.0 mi SE 5.8 mph - N/A   Clear
12:56 AM 36.0 °F 32.1 °F 28.4 °F 74% 30.06 in 10.0 mi SE 4.6 mph - N/A   Clear
1:16 AM 35.8 °F - 28.4 °F 75% 30.05 in 10.0 mi Calm Calm - N/A   Clear
1:36 AM 35.6 °F 31.7 °F 28.6 °F 76% 30.04 in 10.0 mi SE 4.6 mph - N/A   Scattered Clouds
1:56 AM 35.6 °F 30.7 °F 29.1 °F 77% 30.03 in 10.0 mi ESE 5.8 mph - N/A   Scattered Clouds
2:16 AM 35.8 °F 30.1 °F 28.8 °F 76% 30.00 in 10.0 mi ESE 6.9 mph - N/A   Scattered Clouds
2:36 AM 35.8 °F 30.1 °F 28.8 °F 76% 29.98 in 10.0 mi ESE 6.9 mph - N/A   Clear
2:56 AM 35.8 °F 29.4 °F 29.3 °F 77% 29.97 in 10.0 mi ESE 8.1 mph - N/A   Clear
3:16 AM 36.0 °F 29.0 °F 29.8 °F 78% 29.96 in 10.0 mi SE 9.2 mph - N/A   Clear
3:36 AM 36.9 °F 29.6 °F 30.7 °F 79% 29.95 in 10.0 mi SE 10.4 mph - N/A   Scattered Clouds
3:56 AM 37.4 °F 29.8 °F 29.8 °F 74% 29.91 in 10.0 mi East 11.5 mph - N/A   Scattered Clouds
4:16 AM 37.4 °F 30.3 °F 30.2 °F 75% 29.89 in 10.0 mi SE 10.4 mph - N/A   Scattered Clouds
4:36 AM 37.8 °F 31.8 °F 28.9 °F 71% 29.86 in 10.0 mi SE 8.1 mph 16.1 mph N/A   Scattered Clouds
4:56 AM 37.9 °F 30.5 °F 28.4 °F 69% 29.86 in 10.0 mi SSE 11.5 mph 16.1 mph N/A   Scattered Clouds
5:16 AM 37.4 °F 29.8 °F 30.2 °F 75% 29.86 in 5.0 mi SSE 11.5 mph 18.4 mph N/A Snow Light Snow
5:36 AM 34.2 °F 26.8 °F 31.5 °F 90% 29.85 in 3.0 mi SE 9.2 mph - N/A Snow Light Snow
5:56 AM 33.8 °F 26.4 °F 32.0 °F 93% 29.83 in 2.0 mi SE 9.2 mph - N/A Snow Light Snow
6:16 AM 33.8 °F 26.4 °F 32.0 °F 93% 29.82 in 2.0 mi SE 9.2 mph - N/A Snow Light Snow
6:36 AM 33.8 °F 26.4 °F 32.0 °F 93% 29.80 in 1.8 mi SE 9.2 mph - N/A Snow Light Snow
6:56 AM 33.8 °F 26.4 °F 32.0 °F 93% 29.80 in 2.5 mi SE 9.2 mph - N/A Snow Light Snow
7:16 AM 33.6 °F 26.2 °F 32.0 °F 94% 29.78 in 1.2 mi SSE 9.2 mph - N/A Snow Light Snow
7:36 AM 33.8 °F 27.0 °F 32.0 °F 93% 29.77 in 2.0 mi SE 8.1 mph - N/A Snow Light Snow
7:56 AM 33.8 °F 25.8 °F 32.0 °F 93% 29.77 in 3.0 mi SE 10.4 mph - N/A Snow Light Snow
8:16 AM 34.0 °F 27.2 °F 32.2 °F 93% 29.75 in 7.0 mi SE 8.1 mph - N/A   Overcast
8:36 AM 34.2 °F 26.2 °F 32.4 °F 93% 29.73 in 7.0 mi SSE 10.4 mph 18.4 mph N/A   Overcast
8:56 AM 34.7 °F 26.4 °F 32.5 °F 92% 29.73 in 7.0 mi SSE 11.5 mph - N/A   Overcast
9:16 AM 34.7 °F 26.4 °F 32.5 °F 92% 29.71 in 7.0 mi SSE 11.5 mph - N/A   Overcast
9:36 AM 35.2 °F 27.6 °F 32.9 °F 91% 29.70 in 7.0 mi SSE 10.4 mph 16.1 mph N/A   Mostly Cloudy
9:56 AM 36.1 °F 29.3 °F 33.3 °F 89% 29.68 in 7.0 mi SSE 9.2 mph 19.6 mph N/A   Mostly Cloudy
10:16 AM 36.5 °F 31.0 °F 33.8 °F 90% 29.67 in 7.0 mi SSE 6.9 mph - N/A   Scattered Clouds
10:36 AM 37.9 °F 33.5 °F 34.7 °F 88% 29.66 in 10.0 mi SSE 5.8 mph - N/A   Mostly Cloudy
10:56 AM 38.7 °F 34.3 °F 34.9 °F 86% 29.65 in 10.0 mi South 5.8 mph - N/A   Overcast
11:16 AM 40.1 °F 34.7 °F 35.8 °F 85% 29.65 in 10.0 mi South 8.1 mph - N/A   Mostly Cloudy
11:36 AM 40.1 °F 34.1 °F 36.0 °F 85% 29.64 in 10.0 mi South 9.2 mph - N/A   Mostly Cloudy
11:56 AM 40.5 °F 35.1 °F 36.5 °F 86% 29.63 in 10.0 mi SSE 8.1 mph - N/A   Mostly Cloudy
12:16 PM 41.2 °F 36.6 °F 37.4 °F 86% 29.62 in 10.0 mi South 6.9 mph - N/A   Mostly Cloudy
12:36 PM 42.6 °F 38.4 °F 38.3 °F 85% 29.61 in 10.0 mi South 6.9 mph - N/A   Scattered Clouds
12:56 PM 43.3 °F 38.1 °F 38.8 °F 84% 29.61 in 10.0 mi SSW 9.2 mph - N/A   Clear
1:16 PM 44.4 °F 40.5 °F 39.7 °F 84% 29.60 in 10.0 mi SSW 6.9 mph - N/A   Scattered Clouds
1:36 PM 45.3 °F 39.7 °F 41.4 °F 86% 29.60 in 5.0 mi SW 11.5 mph 16.1 mph N/A Rain Light Rain
1:55 PM 45.5 °F 40.8 °F 42.1 °F 88% 29.60 in 4.0 mi SW 9.2 mph - N/A Rain Light Rain
2:16 PM 45.1 °F 39.9 °F 42.3 °F 90% 29.60 in 2.0 mi SSW 10.4 mph - N/A Rain Light Rain
2:36 PM 44.8 °F 41.0 °F 42.6 °F 92% 29.60 in 1.0 mi SSW 6.9 mph - N/A Rain Light Rain
2:56 PM 44.8 °F 41.6 °F 42.8 °F 93% 29.61 in 1.2 mi WSW 5.8 mph - N/A Rain Light Rain
3:16 PM 45.0 °F 40.6 °F 43.0 °F 93% 29.61 in 1.2 mi West 8.1 mph - N/A Rain Light Rain
3:36 PM 45.0 °F 40.6 °F 42.6 °F 91% 29.62 in 1.5 mi West 8.1 mph 18.4 mph N/A Rain Light Rain
3:56 PM 44.6 °F 39.2 °F 41.7 °F 90% 29.62 in 3.0 mi WSW 10.4 mph - N/A   Overcast
4:16 PM 44.4 °F 40.5 °F 41.9 °F 91% 29.63 in 4.0 mi WSW 6.9 mph - N/A Rain Light Rain
4:36 PM 43.9 °F 39.3 °F 40.6 °F 88% 29.63 in 2.0 mi West 8.1 mph 19.6 mph N/A Rain Light Rain
4:56 PM 43.3 °F 38.6 °F 41.0 °F 91% 29.64 in 3.0 mi West 8.1 mph - N/A Rain Light Rain
5:16 PM 42.8 °F 36.6 °F 40.1 °F 90% 29.64 in 5.0 mi West 11.5 mph 16.1 mph N/A Rain Light Rain
5:36 PM 42.4 °F 35.7 °F 39.7 °F 90% 29.65 in 3.0 mi West 12.7 mph 19.6 mph N/A   Overcast
5:56 PM 42.1 °F 35.7 °F 38.5 °F 87% 29.66 in 7.0 mi West 11.5 mph 19.6 mph N/A Rain Light Rain
6:16 PM 41.9 °F 35.9 °F 38.3 °F 87% 29.67 in 7.0 mi West 10.4 mph - N/A   Unknown
6:36 PM 41.4 °F 34.3 °F 37.8 °F 87% 29.68 in 5.0 mi West 12.7 mph 21.9 mph N/A Rain Light Rain
6:56 PM 41.2 °F 35.0 °F 37.8 °F 88% 29.69 in 7.0 mi West 10.4 mph 18.4 mph N/A   Overcast
7:16 PM 41.2 °F 34.1 °F 36.9 °F 85% 29.70 in 10.0 mi West 12.7 mph 18.4 mph N/A   Overcast
7:36 PM 41.0 °F 34.7 °F 36.7 °F 85% 29.70 in 10.0 mi West 10.4 mph - N/A   Mostly Cloudy
7:56 PM 41.0 °F 34.3 °F 36.1 °F 83% 29.70 in 10.0 mi West 11.5 mph 24.2 mph N/A   Mostly Cloudy
8:16 PM 41.0 °F 34.3 °F 36.3 °F 83% 29.70 in 10.0 mi West 11.5 mph - N/A Rain Light Rain
8:36 PM 41.0 °F 32.5 °F 35.8 °F 82% 29.70 in 10.0 mi West 17.3 mph 24.2 mph N/A   Mostly Cloudy
8:56 PM 41.0 °F 33.5 °F 35.4 °F 81% 29.71 in 10.0 mi West 13.8 mph 23.0 mph N/A   Overcast
9:16 PM 41.4 °F 34.0 °F 34.7 °F 77% 29.71 in 10.0 mi West 13.8 mph 19.6 mph N/A   Overcast
9:36 PM 41.5 °F 34.2 °F 34.0 °F 75% 29.70 in 10.0 mi West 13.8 mph 23.0 mph N/A   Overcast
9:56 PM 41.9 °F 35.4 °F 33.8 °F 73% 29.71 in 10.0 mi WSW 11.5 mph 20.7 mph N/A   Overcast
10:16 PM 41.7 °F 34.4 °F 33.6 °F 73% 29.71 in 10.0 mi West 13.8 mph 20.7 mph N/A   Overcast
10:35 PM 41.9 °F 35.0 °F 33.1 °F 71% 29.71 in 10.0 mi West 12.7 mph 17.3 mph N/A   Overcast
10:56 PM 42.1 °F 34.2 °F 32.4 °F 68% 29.70 in 10.0 mi West 16.1 mph 25.3 mph N/A   Overcast
11:16 PM 42.3 °F 35.1 °F 32.9 °F 69% 29.70 in 10.0 mi West 13.8 mph 23.0 mph N/A   Overcast
11:36 PM 42.3 °F 34.1 °F 32.9 °F 69% 29.70 in 10.0 mi West 17.3 mph 25.3 mph N/A   Overcast
11:56 PM 42.4 °F 35.3 °F 32.9 °F 69% 29.71 in 10.0 mi West 13.8 mph 29.9 mph N/A   Overcast